La Porte, IN

8:49 AM CDT on October 19, 2017 (GMT -0500)
La Porte Municipal

Weather History for KPPO - March, 2014

Change the Weather History Date:

Sunday, March 16, 2014

  Actual Average (KSBN) Record (KSBN)
Temperature  
Mean Temperature 22 °F -  
Max Temperature 28 °F 45 °F 79 °F (2012)
Min Temperature 16 °F 28 °F 2 °F (1900)
Degree Days  
Heating Degree Days 42    
Moisture  
Dew Point 8 °F    
Average Humidity 53    
Maximum Humidity 72    
Minimum Humidity 40    
Precipitation  
Precipitation 0.00 in - - ()
Sea Level Pressure  
Sea Level Pressure 30.25 in    
Wind  
Wind Speed 12 mph (NE)    
Max Wind Speed 18 mph    
Max Gust Speed 24 mph    
Visibility 10 miles    
Events      
Averages and records for this station are not official NWS values.
T = Trace of Precipitation, MM = Missing Value Source: NWS Daily Summary

Daily Weather History Graph

Daily Weather History Graph

Search for Another Location

Airport or City:

Trip Planner

Search our weather history database for the weather conditions in past years. The results will help you decide how hot, cold, wet, or windy it might be!

Date:

Astronomy

Mar. 16, 2014 Rise Set
Actual Time 6:56 AM CDT 6:54 PM CDT
Civil Twilight 6:29 AM CDT 7:22 PM CDT
Nautical Twilight 5:57 AM CDT 7:54 PM CDT
Astronomical Twilight 5:24 AM CDT 8:27 PM CDT
Moon 7:12 PM CDT (3/16) 6:40 AM CDT (3/16)
Length of Visible Light 12h 52m
Length of Day
11h 57m
Full, 100% of the Moon is Illuminated
Mar 16
Full
Mar 16
Full
Mar 23
Last Quarter
Mar 30
New
Apr 7
First Quarter

Hourly Weather History & Observations

Time (CDT) Temp. Windchill Dew Point Humidity Pressure Visibility Wind Dir Wind Speed Gust Speed Precip Events Conditions
12:15 AM 28.4 °F 20.4 °F 18.7 °F 67% 30.25 in 10.0 mi NE 8.1 mph - N/A   Mostly Cloudy
12:35 AM 28.4 °F 20.4 °F 18.1 °F 65% 30.25 in 10.0 mi NE 8.1 mph - N/A   Overcast
12:55 AM 28.4 °F 19.7 °F 18.0 °F 65% 30.26 in 10.0 mi NE 9.2 mph - N/A   Overcast
1:15 AM 28.4 °F 21.2 °F 17.1 °F 63% 30.26 in 10.0 mi NE 6.9 mph - N/A   Overcast
1:35 AM 28.4 °F 19.7 °F 16.0 °F 60% 30.27 in 10.0 mi ENE 9.2 mph - N/A   Overcast
1:55 AM 28.0 °F 17.5 °F 14.2 °F 56% 30.27 in 10.0 mi NNE 12.7 mph - N/A   Overcast
2:15 AM 27.5 °F 15.0 °F 12.7 °F 54% 30.26 in 10.0 mi NE 17.3 mph - N/A   Overcast
2:35 AM 27.5 °F 17.4 °F 12.4 °F 53% 30.26 in 10.0 mi NNE 11.5 mph 20.7 mph N/A   Overcast
2:55 AM 27.1 °F 14.5 °F 12.0 °F 53% 30.26 in 10.0 mi NNE 17.3 mph - N/A   Overcast
3:15 AM 26.8 °F 13.7 °F 10.9 °F 51% 30.26 in 10.0 mi NE 18.4 mph - N/A   Overcast
3:35 AM 26.1 °F 14.0 °F 6.6 °F 44% 30.27 in 10.0 mi NE 15.0 mph 19.6 mph N/A   Overcast
3:55 AM 25.7 °F 13.5 °F 6.6 °F 44% 30.27 in 10.0 mi NE 15.0 mph - N/A   Overcast
4:15 AM 25.3 °F 13.6 °F 7.7 °F 47% 30.28 in 10.0 mi NE 13.8 mph 20.7 mph N/A   Overcast
4:35 AM 24.4 °F 11.9 °F 4.6 °F 43% 30.28 in 10.0 mi ENE 15.0 mph - N/A   Overcast
4:55 AM 23.7 °F 13.3 °F 7.2 °F 49% 30.29 in 10.0 mi NE 10.4 mph 16.1 mph N/A   Overcast
5:15 AM 23.2 °F 11.4 °F 7.5 °F 51% 30.29 in 10.0 mi ENE 12.7 mph - N/A   Overcast
5:35 AM 22.8 °F 10.9 °F 5.7 °F 48% 30.29 in 10.0 mi NE 12.7 mph 17.3 mph N/A   Overcast
5:55 AM 21.7 °F 8.0 °F 0.9 °F 40% 30.28 in 10.0 mi NNE 16.1 mph 21.9 mph N/A   Overcast
6:15 AM 21.2 °F 8.9 °F 1.4 °F 42% 30.28 in 10.0 mi NE 12.7 mph - N/A   Overcast
6:35 AM 20.8 °F 6.8 °F 1.6 °F 43% 30.28 in 10.0 mi NE 16.1 mph 21.9 mph N/A   Overcast
6:55 AM 20.3 °F 7.2 °F 1.4 °F 44% 30.29 in 10.0 mi NE 13.8 mph 17.3 mph N/A   Overcast
7:15 AM 19.9 °F 5.7 °F 2.3 °F 46% 30.28 in 10.0 mi NE 16.1 mph 20.7 mph N/A   Overcast
7:35 AM 19.4 °F 6.0 °F 3.9 °F 51% 30.29 in 10.0 mi NE 13.8 mph 19.6 mph N/A   Overcast
7:55 AM 18.7 °F 4.0 °F 5.2 °F 56% 30.30 in 10.0 mi NE 16.1 mph 21.9 mph N/A   Overcast
8:15 AM 18.3 °F 4.1 °F 5.2 °F 57% 30.30 in 10.0 mi ENE 15.0 mph 20.7 mph N/A   Overcast
8:35 AM 18.1 °F 5.0 °F 6.1 °F 59% 30.30 in 10.0 mi NE 12.7 mph 19.6 mph N/A   Mostly Cloudy
8:55 AM 17.6 °F 3.2 °F 5.4 °F 59% 30.29 in 10.0 mi NNE 15.0 mph 21.9 mph N/A   Mostly Cloudy
9:15 AM 17.6 °F 1.7 °F 2.5 °F 52% 30.30 in 10.0 mi NE 18.4 mph 24.2 mph N/A   Mostly Cloudy
9:35 AM 17.8 °F 2.4 °F 4.5 °F 56% 30.31 in 10.0 mi NE 17.3 mph 23.0 mph N/A   Mostly Cloudy
9:55 AM 17.4 °F 2.4 °F 3.6 °F 55% 30.31 in 10.0 mi ENE 16.1 mph - N/A   Overcast
10:15 AM 17.6 °F 2.7 °F 1.9 °F 50% 30.31 in 10.0 mi ENE 16.1 mph 20.7 mph N/A   Overcast
10:35 AM 18.0 °F 3.1 °F 2.1 °F 50% 30.32 in 10.0 mi NE 16.1 mph 19.6 mph N/A   Overcast
10:55 AM 18.7 °F 5.1 °F 2.3 °F 49% 30.33 in 10.0 mi NE 13.8 mph 19.6 mph N/A   Scattered Clouds
11:15 AM 19.9 °F 6.7 °F 5.0 °F 52% 30.33 in 10.0 mi ENE 13.8 mph - N/A   Clear
11:35 AM 21.0 °F 8.1 °F 5.2 °F 51% 30.33 in 10.0 mi ENE 13.8 mph 24.2 mph N/A   Clear
11:55 AM 21.4 °F 9.7 °F 5.9 °F 51% 30.34 in 10.0 mi ENE 11.5 mph - N/A   Clear
12:15 PM 22.5 °F 10.5 °F 6.6 °F 51% 30.33 in 10.0 mi ENE 12.7 mph - N/A   Clear
12:35 PM 23.0 °F 12.4 °F 7.3 °F 51% 30.32 in 10.0 mi ENE 10.4 mph 19.6 mph N/A   Clear
12:55 PM 23.4 °F 11.1 °F 8.6 °F 53% 30.31 in 10.0 mi ENE 13.8 mph - N/A   Clear
1:15 PM 23.7 °F 11.5 °F 7.2 °F 49% 30.29 in 10.0 mi ENE 13.8 mph - N/A   Clear
1:35 PM 24.3 °F 11.7 °F 7.3 °F 49% 30.28 in 10.0 mi NE 15.0 mph 19.6 mph N/A   Clear
1:55 PM 24.8 °F 13.4 °F 7.5 °F 48% 30.27 in 10.0 mi ENE 12.7 mph 19.6 mph N/A   Clear
2:15 PM 25.2 °F 13.9 °F 7.5 °F 47% 30.26 in 10.0 mi NE 12.7 mph 17.3 mph N/A   Clear
2:35 PM 25.3 °F 14.7 °F 7.5 °F 47% 30.25 in 10.0 mi NE 11.5 mph - N/A   Clear
2:55 PM 24.8 °F 12.9 °F 6.4 °F 46% 30.24 in 10.0 mi NE 13.8 mph 19.6 mph N/A   Clear
3:15 PM 25.9 °F 15.3 °F 7.5 °F 46% 30.23 in 10.0 mi ENE 11.5 mph - N/A   Clear
3:35 PM 26.2 °F 15.8 °F 8.8 °F 48% 30.22 in 10.0 mi NE 11.5 mph 16.1 mph N/A   Clear
3:55 PM 25.7 °F 14.0 °F 8.8 °F 49% 30.21 in 10.0 mi ENE 13.8 mph 19.6 mph N/A   Clear
4:15 PM 26.2 °F 15.2 °F 9.1 °F 49% 30.21 in 10.0 mi ENE 12.7 mph 20.7 mph N/A   Clear
4:35 PM 26.1 °F 15.0 °F 9.3 °F 49% 30.20 in 10.0 mi NE 12.7 mph - N/A   Clear
4:55 PM 26.1 °F 14.5 °F 9.0 °F 49% 30.19 in 10.0 mi ENE 13.8 mph - N/A   Clear
5:15 PM 25.7 °F 14.6 °F 8.6 °F 48% 30.20 in 10.0 mi NE 12.7 mph - N/A   Clear
5:35 PM 25.2 °F 14.4 °F 9.0 °F 50% 30.20 in 10.0 mi ENE 11.5 mph 17.3 mph N/A   Clear
5:55 PM 24.6 °F 13.2 °F 8.2 °F 50% 30.20 in 10.0 mi ENE 12.7 mph - N/A   Clear
6:15 PM 23.9 °F 12.9 °F 8.1 °F 51% 30.19 in 10.0 mi NE 11.5 mph 17.3 mph N/A   Clear
6:35 PM 23.4 °F 14.3 °F 8.1 °F 52% 30.19 in 10.0 mi NE 8.1 mph - N/A   Clear
6:55 PM 23.0 °F 11.7 °F 7.5 °F 52% 30.18 in 10.0 mi NE 11.5 mph 16.1 mph N/A   Clear
7:15 PM 22.6 °F 12.6 °F 7.9 °F 53% 30.18 in 10.0 mi NE 9.2 mph - N/A   Scattered Clouds
7:35 PM 21.9 °F 11.7 °F 7.9 °F 55% 30.19 in 10.0 mi NE 9.2 mph - N/A   Mostly Cloudy
7:55 PM 21.6 °F 11.3 °F 7.7 °F 55% 30.19 in 10.0 mi NE 9.2 mph - N/A   Mostly Cloudy
8:15 PM 21.2 °F 10.9 °F 7.9 °F 57% 30.19 in 10.0 mi NE 9.2 mph - N/A   Mostly Cloudy
8:35 PM 20.8 °F 11.2 °F 7.9 °F 57% 30.19 in 10.0 mi NE 8.1 mph - N/A   Mostly Cloudy
8:55 PM 20.3 °F 11.5 °F 8.1 °F 59% 30.18 in 10.0 mi NE 6.9 mph - N/A   Mostly Cloudy
9:15 PM 20.1 °F 10.3 °F 8.1 °F 60% 30.17 in 10.0 mi NE 8.1 mph - N/A   Mostly Cloudy
9:35 PM 19.8 °F 9.9 °F 8.1 °F 61% 30.17 in 10.0 mi NE 8.1 mph - N/A   Mostly Cloudy
9:55 PM 19.6 °F 9.7 °F 7.7 °F 60% 30.16 in 10.0 mi NE 8.1 mph - N/A   Mostly Cloudy
10:15 PM 19.2 °F 10.2 °F 8.1 °F 62% 30.16 in 10.0 mi NE 6.9 mph - N/A   Mostly Cloudy
10:35 PM 18.5 °F 8.4 °F 8.6 °F 65% 30.15 in 10.0 mi NE 8.1 mph - N/A   Mostly Cloudy
10:55 PM 18.1 °F 8.9 °F 9.1 °F 68% 30.15 in 10.0 mi NE 6.9 mph - N/A   Mostly Cloudy
11:15 PM 17.6 °F 9.3 °F 9.1 °F 69% 30.15 in 10.0 mi NE 5.8 mph - N/A   Scattered Clouds
11:35 PM 17.2 °F 10.2 °F 9.1 °F 71% 30.14 in 10.0 mi NE 4.6 mph - N/A   Scattered Clouds
11:55 PM 16.7 °F 8.3 °F 9.0 °F 72% 30.14 in 10.0 mi NNE 5.8 mph - N/A   Mostly Cloudy